Regional Weather Roundup
Issued by NWS

Home | Current Version | Previous Version | Text Only | Print | Product List | Glossary On
Versions: 1 2 3 4 5 6 7 8 9 10 11 12 13 14 15 16 17 18 19 20 21 22 23 24 25 26 27 28 29 30 31 32 33 34 35 36 37 38 39 40 41 42 43 44 45 46 47 48 49 50
000
ASUS42 KFFC 011703
RWRGA
WEATHER ROUNDUP FOR GEORGIA
NATIONAL WEATHER SERVICE PEACHTREE CITY GA
1200 PM EST SUN MAR 01 2015

NOTE: "FAIR" INDICATES FEW OR NO CLOUDS BELOW 12,000 FEET WITH NO
SIGNIFICANT WEATHER AND/OR OBSTRUCTIONS TO VISIBILITY.

* = USE WITH CAUTION. THE STATIONS MARKED WITH AN ASTERISK MAY NOT
REPORT WEATHER SUCH AS PRECIPITATION, FOG, OR THUNDER AND ARE NOT
QUALITY CONTROLLED BY NWS.

THE REMARK "TC" DENOTES TEMPERATURE READING IN DEGREES CELSIUS.

GAZ001>058-011800-
NORTH GEORGIA

CITY           SKY/WX    TMP DP  RH WIND       PRES   REMARKS
ATLANTA        CLOUDY    40  38  93 E8        30.46F WCI  34
ATHENS         RAIN      37  36  96 CALM      30.50S VSB 1
CHAMBLEE       CLOUDY    39  38  96 E6        30.47F FOG     WCI  35
PEACHTREE CITY CLOUDY    41  39  93 E5        30.47F FOG
ROME           CLOUDY    44  38  79 SE8       30.45F
WEST ATLANTA   CLOUDY    41  37  86 E6        30.47F
GAINESVILLE    CLOUDY    40  38  93 E6        30.48F FOG
CARTERSVILLE   CLOUDY    42  36  79 SE8       30.47F


CITY           SKY/WX    TMP DP  RH WIND       PRES   REMARKS
DALTON*        CLOUDY    41  41 100 S5        30.46F FOG
LAWRENCEVILLE* CLOUDY    39  34  81 CALM      30.47F FOG
MARIETTA       CLOUDY    39  39 100 E7        30.47F FOG     WCI  34
$$

GAZ059>098-102>109-011800-
CENTRAL GEORGIA

CITY           SKY/WX    TMP DP  RH WIND       PRES   REMARKS
AUGUSTA-BUSH   CLOUDY    39  36  89 N6        30.51F WCI  35
AUGUSTA-DANIEL CLOUDY    40  37  89 NE6       30.50F
COLUMBUS       CLOUDY    43  43 100 E8        30.46F FOG
MACON          FOG       40  39  97 E6        30.49F VSB 1
ROBINS AFB     CLOUDY    41  39  93 N6        30.50S FOG


CITY           SKY/WX    TMP DP  RH WIND       PRES   REMARKS
LAGRANGE*      CLOUDY    46  45  96 E5        30.45F FOG
SYLVANIA*      CLOUDY    40  40 100 NE5       30.50F
MILLEDGEVILLE* CLOUDY    39  39 100 CALM      30.50F FOG
$$

GAZ099>101-110>166-011800-
SOUTH GEORGIA

CITY           SKY/WX    TMP DP  RH WIND       PRES   REMARKS
SAVANNAH       DRIZZLE   44  42  93 N6        30.48F FOG
VALDOSTA       CLOUDY    49  48  97 NE7       30.44F FOG
ALMA           CLOUDY    47  44  90 VRB3      30.46F
ST SIMONS      CLOUDY    50  48  93 N8        30.45F
ALBANY         CLOUDY    47  46  97 NE7       30.47F FOG
MOODY AFB      CLOUDY    48  46  93 NE7       30.44F FOG
BRUNSWICK      CLOUDY    52  48  87 N6        30.46F


CITY           SKY/WX    TMP DP  RH WIND       PRES   REMARKS
BAINBRIDGE*    CLOUDY    54  52  94 NE8       30.44F
MOULTRIE*      CLOUDY    48  48 100 E6        30.44F FOG
VIDALIA*       CLOUDY    43  43 100 NE6       30.49F
WAYCROSS*      CLOUDY    51  49  94 N6        30.46F
DOUGLAS*       CLOUDY    46  46 100 NE5       30.48F FOG
$$


USA.gov is the U.S. government's official web portal to all federal, state and local government web resources and services.